Regional Weather Roundup
Issued by NWS

Home | Current Version | Previous Version | Graphics & Text | Print | Product List | Glossary On
Versions: 1 2 3 4 5 6 7 8 9 10 11 12 13 14 15 16 17 18 19 20 21 22 23 24 25 26 27
000
ASUS45 KTFX 282310
RWRMT
MONTANA REGIONAL WEATHER ROUNDUP
NATIONAL WEATHER SERVICE GREAT FALLS MT
500 PM MDT SAT MAY 28 2016

NOTE: "FAIR" INDICATES FEW OR NO CLOUDS BELOW 12000 FEET WITH NO
SIGNIFICANT WEATHER AND/OR OBSTRUCTIONS TO VISIBILITY.

MTZ001>007-043-290000-
WEST OF THE DIVIDE

CITY           SKY/WX    TMP DP  RH WIND       PRES   REMARKS
KALISPELL      PTSUNNY   60  31  33 SW18      30.02R
MISSOULA       PTSUNNY   60  32  34 NW5       30.05F
BUTTE          SUNNY     57  27  31 W8        30.05R
MULLAN PASS    CLOUDY    44  30  57 MISG      30.09S
ANACONDA         N/A     55  32  41 N10G18    30.04R
DEER LODGE       N/A     57  30  35 NW5       30.06R
EUREKA           N/A     61  28  29 SW9G18    30.01S
HAMILTON         N/A     63  27  25 SE5       30.02F
LIBBY            N/A     57  30  35 CALM      30.04S
$$

MTZ008-052>055-290000-
SOUTHWEST MONTANA

CITY           SKY/WX    TMP DP  RH WIND       PRES   REMARKS
BOZEMAN        CLOUDY    62  40  44 NW8       30.02S
DILLON         MOSUNNY   63  29  27 W9        30.01S
W YELLOWSTONE  CLOUDY    50  34  53 S25G31    30.10S
ENNIS          MOSUNNY   59  37  44 VRB5      30.08S
$$

MTZ009-010-012-014-046-048-049-054-290000-
EAST SLOPES AND CENTRAL MONTANA

CITY           SKY/WX    TMP DP  RH WIND       PRES   REMARKS
CUT BANK       MOSUNNY   58  29  33 SW16G28   29.96S
GREAT FALLS    PTSUNNY   61  28  28 W16       29.98F
MALMSTROM AFB  PTSUNNY   62  28  27 W14G20    29.98S
HELENA         MOSUNNY   63  29  27 W15G23    29.99F
CHOTEAU          N/A     61  28  29 W13G18    29.99S
$$

MTZ011-013-016-021-045-047-050-051-290000-
NORTH CENTRAL MONTANA

CITY           SKY/WX    TMP DP  RH WIND       PRES   REMARKS
HAVRE          PTSUNNY   65  35  33 W16G23    29.92S
LEWISTOWN      CLOUDY    60  31  33 NW8       29.99S
N BAR RANCH    PTSUNNY   57  34  41 NW10G22   30.01S
CHINOOK          N/A     64  30  27 W15G23    29.92S
$$

MTZ017>020-022>027-061-062-290000-
NORTHEAST MONTANA

CITY           SKY/WX    TMP DP  RH WIND       PRES   REMARKS
GLASGOW        PTSUNNY   65  43  44 NW7       29.91R
JORDAN           N/A     66  38  35 NW14      29.94R
SIDNEY         MOSUNNY   68  50  52 NW15G21   29.90R
WOLF POINT     PTSUNNY   70  45  40 W16       29.91R
PLENTYWOOD       N/A     63  52  67 NW10      29.91R
POPLAR           N/A     66  45  45 NW14      29.91R
$$

MTZ028>42-056>058-290000-
SOUTHCENTRAL AND SOUTHEAST MONTANA

CITY           SKY/WX    TMP DP  RH WIND       PRES   REMARKS
BAKER          MOSUNNY   68  44  42 NW14G25   29.94R
BILLINGS       CLOUDY    66  39  37 NW7       29.99R
LIVINGSTON     LGT RAIN  55  44  66 SW9G22    30.01S
MILES CITY     PTSUNNY   72  38  29 NW13G24   29.93R
FORSYTH          N/A     70  37  30 NW7       29.94R
$$

REGIONAL REPORTS...DAKOTAS

CITY           SKY/WX    TMP DP  RH WIND       PRES   REMARKS
WILLISTON      LGT RAIN  60  55  83 CALM      29.90R
MINOT          MOSUNNY   71  52  50 MISG      29.87S
DICKINSON      CLOUDY    64  49  57 W3        29.89R
BEACH            N/A     68  41  37 NW21G28   29.95R
CROSBY         CLOUDY    59  59 100 E9        29.93R FOG
WATFORD CITY     N/A     59  55  88 CALM      29.92R
BISMARCK       PTSUNNY   70  51  51 CALM      29.87R
GRAND FORKS    LGT RAIN  68  57  68 NE10      29.81S
FARGO          CLOUDY    66  57  72 N12       29.81S
BUFFALO SD       N/A     69  49  48 NW14      29.86R
RAPID CITY     CLOUDY    66  51  58 W10       29.94S
$$

REGIONAL REPORTS...WYOMING/IDAHO/WASHINGTON

CITY           SKY/WX    TMP DP  RH WIND       PRES   REMARKS
GILLETTE       MOSUNNY   66  44  45 N10       29.98R
SHERIDAN       MOSUNNY   67  44  43 CALM      29.98S
BUFFALO WY     SUNNY     63  45  51 N9        30.02S
CODY           MOSUNNY   63  41  45 NE9       29.98S
YELLOWSTONE LA   N/A     50  21  32 VRB7      30.16R
IDAHO FALLS    SUNNY     64  29  26 S20G28    30.06S
SALMON         CLOUDY    63  34  34 NW5       29.98S
BOISE          SUNNY     69  26  20 N8        30.02F
SPOKANE        PTSUNNY   62  34  35 S12       30.03F
$$

REGIONAL REPORTS...ALBERTA

CITY           SKY/WX    TMP DP  RH WIND       PRES   REMARKS
EDMONTON       PTSUNNY   61  39  44 E3        29.84F
CALGARY        PTSUNNY   59  32  36 CALM      29.86S
LETHBRIDGE     PTSUNNY   64  30  27 W23G40    29.89S
MEDICINE HAT   PTSUNNY   63  41  45 S7        29.87F
WATERTON GATE    N/A     55  32  41 SW17G25     N/A
CARDSTON         N/A     57  32  38 W16G24      N/A
MILK RIVER       N/A     59  30  33 W14         N/A
ONEFOUR          N/A     61  30  31 W13         N/A
$$

REGIONAL REPORTS...SASKATCHEWAN

CITY           SKY/WX    TMP DP  RH WIND       PRES   REMARKS
SWIFT CURRENT  PTSUNNY   61  45  55 SW9       29.87S
REGINA         LGT RAIN  55  54  94 SW9       29.90R
SASKATOON      LGT RAIN  57  52  82 S6        29.86F
CYPRESS HILLS    N/A     50  37  62 W7          N/A
VAL MARIE        N/A     63  34  34 W16G25      N/A
ROCKGLEN         N/A     57  46  67 W6G22       N/A
ASSINIBOIA       N/A     59  45  58 NE7         N/A
$$




USA.gov is the U.S. government's official web portal to all federal, state and local government web resources and services.